Location: ????
(30.5531°N, 60.5519°E)
Time: 13:59:03
(UTC+00:00)

Daily predictions for brighter satellites

Satellite Brightness Start Highest point End
(mag) Time Altitude Azimuth Time Altitude Azimuth Time Altitude Azimuth
Sakura Rocket 3.8 15:15:31 10° W 15:20:29 75° S 15:27:29 10° E
Cosmos 2034 Rocket 4.1 15:15:50 10° N 15:22:01 89° W 15:28:11 10° S
USA 267 3.4 15:15:31 10° SE 15:22:04 78° NE 15:28:37 10° NW
H-2A R/B 2.1 15:18:45 10° SSE 15:23:45 67° ENE 15:28:54 10° N
NOSS 2-2 (C) 3.3 15:20:50 10° SSW 15:24:23 47° ESE 15:27:49 10° NE
Centaur AC-125 3.1 15:22:27 10° WSW 15:25:22 56° S 15:34:42 10° E
Cosmos 304 Rocket 4.3 15:22:30 10° SSE 15:26:51 37° ESE 15:31:14 10° NE
Cosmos 1833 Rocket 3.1 15:21:52 10° N 15:27:16 46° ENE 15:32:37 10° SE
BREEZE-M DEB (TANK) 3.6 15:26:13 10° SSE 15:27:19 13° ESE 15:28:33 10° E
SL-4 R/B 2.2 15:23:37 10° SW 15:28:03 71° SE 15:32:47 10° NE
STARLINK-1077 4.3 15:24:11 10° NW 15:28:11 50° SW 15:32:11 10° SSE
ATLAS 2AS CENTAUR R/B 4.3 15:24:51 10° SE 15:29:08 16° ESE 15:33:27 10° ENE
Cosmos 1356 3.4 15:25:44 10° N 15:29:10 85° W 15:32:35 10° S
Aureole 2 Rocket 2.5 15:27:24 10° S 15:30:22 40° ESE 15:33:14 10° NNE
Okean 2 Rocket 4.4 15:27:10 10° NNE 15:30:39 23° ENE 15:34:06 10° SE
Sich 1 Rocket 4.2 15:27:16 10° N 15:31:36 41° E 15:35:53 10° SSE
Cosmos 2297 3.9 15:26:41 10° S 15:32:08 52° ESE 15:37:39 10° NNE
Cosmos 909 Rocket 4.3 15:27:10 10° NNW 15:34:17 84° WSW 15:40:33 10° SSE
Meteor 2-4 Rocket 3.6 15:29:07 10° S 15:34:26 71° E 15:39:46 10° NNE
Resurs 01 Rocket 3.6 15:32:31 10° E 15:34:44 14° ENE 15:36:56 10° NE
Cosmos 1461 4.4 15:31:19 10° SW 15:35:09 42° WNW 15:39:10 10° NNE
STARLINK-52 3.6 15:32:57 10° SSW 15:35:52 33° SE 15:38:48 10° ENE
COSMOS 2406 3.3 15:30:21 10° NNW 15:36:07 86° WSW 15:41:50 10° SSE
GPS 2-04 Rocket1 3.4 15:33:23 10° WNW 15:36:36 39° N 15:39:54 10° E
Aureole 1 Rocket 4.3 15:34:39 10° NNW 15:40:09 73° WSW 15:47:20 10° S
Cosmos 2369 Rocket 3.7 15:37:42 10° SE 15:41:02 16° E 15:44:22 10° ENE
Cosmos 1437 Rocket 3.5 15:38:39 10° SSE 15:42:00 31° E 15:45:24 10° NNE
Cosmos 2082 Rocket 3.0 15:37:06 10° N 15:42:21 37° ENE 15:47:01 12° SE
SWIFT 3.9 15:39:55 10° SW 15:43:09 21° S 15:45:44 13° SE
FALCON 9 DEB 4.1 15:42:45 10° S 15:45:35 24° SE 15:48:25 10° ENE
Okean 3 3.4 15:41:58 10° S 15:46:15 83° E 15:50:34 10° N
MOS 1 4.3 15:40:55 10° SSE 15:46:34 70° ENE 15:52:14 10° N
Cosmos 1140 Rocket 4.2 15:44:25 10° NNW 15:49:31 56° WSW 15:54:37 10° S
STARLINK-1124 4.4 15:46:31 10° NNW 15:50:27 41° NE 15:53:31 15° ESE
FALCON 9 R/B 2.4 15:49:24 10° S 15:50:18 12° SSE 15:50:18 12° SSE
ASTRO E2 2.7 15:47:42 10° W 15:51:41 82° N 15:55:11 13° E
IUS-1 SRM-2 2.6 15:49:57 10° WSW 15:52:10 23° SSW 15:52:59 18° SSE
Cosmos 1452 Rocket 4.5 15:48:00 10° SSW 15:53:07 52° WNW 15:58:17 10° N
Cosmos 1634 Rocket 4.0 15:47:20 10° N 15:53:40 70° E 15:59:56 10° SSE
STARLINK-1122 4.2 15:51:27 10° NNW 15:55:26 45° NE 15:58:18 17° ESE
BREEZE-M DEB 3.2 15:55:00 10° WSW 15:57:12 38° NW 15:59:24 10° NNE
Cosmos 1674 Rocket 4.1 15:53:21 10° SSE 15:57:17 37° E 16:01:21 10° NNE
STARLINK-1126 4.0 15:56:05 10° NNW 16:00:07 51° NE 16:02:47 20° ESE
Meteor 2-9 Rocket 4.3 15:55:05 10° NNW 16:00:22 72° W 16:05:40 10° S
BREEZE M DEB (TANK) 3.7 16:00:11 10° WNW 16:02:11 22° SW 16:03:32 14° S
STARLINK-1082 3.9 16:01:20 10° NW 16:05:25 57° NE 16:07:52 22° ESE
Centaur D-1A AC-32 4.1 15:44:25 10° W 16:05:39 47° SSW 16:09:18 19° SE
STARLINK-1100 3.7 16:06:16 10° NW 16:10:23 65° NE 16:12:39 25° ESE
MetOp-A 4.1 16:08:00 13° SSE 16:12:44 79° ENE 16:18:06 10° N
STARLINK-1083 3.6 16:11:13 10° NW 16:15:21 73° NE 16:17:25 28° SE
Lacrosse 5 1.9 16:10:25 10° NW 16:15:29 80° SW 16:18:39 23° SSE
Abrixas rocket 4.3 16:16:57 10° N 16:18:46 15° NNE 16:19:52 13° ENE
STARLINK-1125 3.5 16:16:11 10° NW 16:20:20 82° NE 16:22:12 32° SE
ATLAS 3B CENTAUR R/B 4.2 16:02:37 10° W 16:23:41 80° S 16:31:47 15° E
STARLINK-1109 3.5 16:21:08 10° NW 16:25:17 88° SW 16:26:57 35° SE
H-2A R/B 3.4 16:23:23 10° WSW 16:26:05 22° S 16:27:44 19° SSE
SJ-6B 4.3 16:26:49 10° SSW 16:30:08 30° W 16:33:27 10° NW
STARLINK-1091 3.6 16:26:07 10° NW 16:30:15 78° SW 16:31:45 38° SSE
Orbus 7S 4.3 16:26:13 10° W 16:31:37 31° SSW 16:32:23 28° S
SL-4 R/B 3.9 16:33:04 10° W 16:34:04 11° WSW 16:35:02 10° SW
STARLINK-1072 3.7 16:31:09 10° NW 16:35:15 69° SW 16:36:34 41° SSE
Cosmos 1378 3.4 16:35:29 43° E 16:35:34 43° E 16:39:07 10° NNE
Spot 2 Rocket 4.4 16:34:23 28° E 16:35:43 32° ENE 16:40:09 10° N
Milstar 3 Cent rocket 3.5 16:29:37 10° SW 16:36:18 55° SSE 16:50:09 10° E
Cosmos 1741 Rocket 3.9 16:32:10 10° NNW 16:37:25 87° ENE 16:39:57 31° SSE
ISS -2.8 16:36:50 10° WNW 16:39:57 36° SW 16:40:25 34° SSW
STARLINK-1096 3.8 16:36:06 10° NW 16:40:11 60° SW 16:41:19 42° S
Cosmos 1850 Rocket 4.1 16:39:11 10° NNW 16:44:31 76° WSW 16:47:09 30° S
STARLINK-1079 4.0 16:41:09 10° NW 16:45:11 53° SW 16:46:08 42° S
H-2A ROCKET BODY 3.2 16:43:53 10° SW 16:48:21 51° SSE 17:07:13 10° E
STARLINK-1116 4.2 16:46:10 10° NW 16:50:08 46° SW 16:50:54 41° SSW
CZ-2C R/B 4.5 16:45:34 10° N 16:50:29 32° WNW 16:55:21 10° SW
NOSS 3-4 (A) 3.3 16:47:22 18° S 16:51:43 57° ESE 16:57:36 10° NE
NOSS 3-4 (C) 3.3 16:47:45 19° S 16:51:49 56° ESE 16:57:42 10° NE
Nadezhda 4 Rocket 3.9 16:47:32 19° S 16:52:04 90° ESE 16:58:13 10° N
Cosmos 1943 Rocket 2.5 16:48:03 10° SSW 16:53:32 67° WNW 16:59:05 10° NNE
Okean 1 Rocket 2.9 16:53:29 10° N 16:57:55 71° E 16:58:22 65° SE
SPOT 1/Viking Rocket 4.0 16:59:49 39° E 17:00:25 41° ENE 17:05:13 10° N
SAR-Lupe-2 3.5 16:56:58 10° NNE 17:00:21 78° N 17:00:21 78° N
Terra 3.7 17:01:43 16° ENE 17:01:43 16° ENE 17:04:14 10° NNE
Cosmos 1302 Rocket 4.1 16:57:14 16° SSW 17:01:28 75° WNW 17:06:47 10° NNE
APEX 4.4 16:59:24 10° SSW 17:06:17 88° ESE 17:12:06 10° NNE
STARLINK-1111 4.5 17:03:31 10° NNW 17:07:25 39° NE 17:07:28 39° NE
IGS 5A 3.6 17:09:55 59° NE 17:09:55 59° NE 17:13:40 10° N
Resurs 01 Rocket 2.6 17:09:20 31° SW 17:10:48 41° W 17:15:01 10° NNW
STARLINK-1073 4.3 17:08:25 10° NNW 17:12:14 43° NE 17:12:14 43° NE
Sakura Rocket 4.3 17:08:54 10° W 17:14:58 60° SSW 17:16:51 47° SE
Cosmos 1656 Rocket 3.6 17:15:10 59° ESE 17:15:16 59° ESE 17:20:46 10° NNE
ASC 2 Rocket 4.5 17:10:28 10° SW 17:14:16 37° SSW 17:14:16 37° SSW
ATLAS CENTAUR R/B 1.6 17:16:17 67° NE 17:16:17 67° NE 17:20:02 10° NNE
GPS 2-04 Rocket1 3.8 17:12:42 10° WNW 17:14:50 34° W 17:14:50 34° W
STARLINK-1121 4.3 17:13:20 10° NNW 17:17:00 47° NNE 17:17:00 47° NNE
Okean 2 3.5 17:17:49 72° N 17:17:49 72° N 17:21:36 10° N
ATLAS 2AS CENTAUR R/B 3.0 17:11:20 10° SSW 17:19:10 85° WNW 17:27:14 10° NNE
Cosmos 1992 Rocket 4.2 17:20:54 52° ENE 17:20:54 52° ENE 17:25:17 10° NNE
STARLINK-1106 4.3 17:18:18 10° NNW 17:21:48 50° NNE 17:21:48 50° NNE
Cosmos 2369 Rocket 2.9 17:19:02 10° SW 17:24:32 51° WNW 17:30:02 10° N
Cosmos 2082 Rocket 4.1 17:21:46 10° NW 17:26:07 23° W 17:28:54 16° SW
STARLINK-1112 4.3 17:23:15 10° NW 17:26:35 50° N 17:26:35 50° N
NOSS 3-2 (A) 4.2 17:21:34 10° NNW 17:29:27 65° ENE 17:31:55 47° ESE
STARLINK-1128 4.4 17:28:11 10° NW 17:31:21 49° NNW 17:31:21 49° NNW
ERS-1 Rocket 3.1 17:39:15 67° NNE 17:39:15 67° NNE 17:43:47 10° N
Cosmos 1092 Rocket 4.4 17:39:31 36° SW 17:41:49 56° W 17:47:50 10° N
USA 238 DEB 3.8 17:36:14 10° NNW 17:43:35 77° ENE 17:44:51 63° ESE
USA 238 3.8 17:36:20 10° NNW 17:43:42 76° ENE 17:44:57 62° ESE
SL-8 R/B 4.3 17:45:34 10° NW 17:49:21 54° NNW 17:49:21 54° NNW
COSMOS 2455 2.8 17:55:16 73° WSW 17:55:42 77° WNW 18:01:44 10° NNE
Cosmos 968 Rocket 4.3 17:54:00 10° N 17:57:47 44° NNE 17:57:47 44° NNE
BREEZE-M DEB (TANK) 3.8 17:54:20 10° SW 18:07:53 63° NW 18:11:58 10° NE
CENTAUR R/B 3.1 18:14:09 10° NNW 18:22:39 79° ENE 18:23:35 72° ESE
S3M 4.4 18:21:57 10° N 18:27:01 57° NNE 18:27:01 57° NNE
SPOT 5 4.3 18:30:15 35° WNW 18:30:15 35° WNW 18:34:11 10° NNW
ATLAS 3B R/B 3.6 18:23:02 10° NNW 18:29:24 38° NE 18:29:36 38° ENE
Terra 3.6 18:40:36 28° NW 18:40:36 28° NW 18:43:12 10° NNW
Cosmos 1553 Rocket 4.4 18:33:06 10° NNW 18:38:17 58° NW 18:38:17 58° NW
NOSS 3-2 (C) 4.1 18:33:49 10° NW 18:41:49 71° WSW 18:41:55 71° WSW
ATLAS 3B CENTAUR R/B 3.5 18:35:41 10° W 18:45:54 50° WSW 18:45:54 50° WSW
SeaSat 1 4.2 18:49:20 10° NNE 18:51:31 27° NNE 18:51:31 27° NNE
Milstar 3 Cent rocket 4.4 19:05:57 10° W 19:16:46 83° S 19:41:42 10° E
Cosmos 2227 Rocket 4.4 19:16:39 10° NNE 19:19:43 17° NE 19:19:43 17° NE
CZ-4C R/B 4.1 19:29:19 20° NE 19:29:19 20° NE 19:30:59 10° NNE
FALCON 9 R/B 4.4 19:31:49 23° ENE 19:31:49 23° ENE 19:36:13 10° E
Cosmos 1980 Rocket 4.2 20:02:04 20° NE 20:02:04 20° NE 20:04:04 10° NE
Lacrosse 4 Rocket 4.5 20:13:44 10° NNE 20:14:26 13° NNE 20:14:26 13° NNE
BREEZE M DEB (TANK) 4.4 20:20:20 68° E 20:20:20 68° E 20:40:07 10° NE
ATLAS 3B R/B 4.3 20:13:47 10° NW 20:16:51 24° WNW 20:16:51 24° WNW
Cosmos 2297 Rocket 3.6 20:21:28 10° NNW 20:24:29 33° NNW 20:24:29 33° NNW
SJ 16-02 4.1 20:30:06 10° NNW 20:31:03 16° N 20:31:03 16° N
Cosmos 1697 Rocket 4.1 20:47:14 32° NNW 20:47:14 32° NNW 20:50:45 10° N
Cosmos 2227 Rocket 3.9 20:59:10 10° NNW 21:01:30 25° NW 21:01:30 25° NW
Resurs 1-4 Rocket 3.4 21:03:04 10° NNE 21:06:33 36° NE 21:06:33 36° NE
SL-16 R/B 3.4 21:12:56 35° ENE 21:12:56 35° ENE 21:16:49 10° NE
CZ-4C R/B 4.4 21:14:27 13° NW 21:14:56 13° NW 21:17:22 10° NNW
Cosmos 2184 Rocket 4.3 21:20:01 59° ENE 21:20:01 59° ENE 21:25:22 10° NNE
CZ-2D R/B 2.7 21:30:01 10° NNE 21:33:53 51° NNE 21:33:53 51° NNE
Cosmos 2360 Rocket 3.7 21:35:35 25° E 21:35:35 25° E 21:40:00 10° NE
USA 215 3.1 21:39:10 81° WNW 21:39:10 81° WNW 21:45:23 10° NW
Cosmos 1980 Rocket 3.8 21:43:49 24° NW 21:43:49 24° NW 21:47:37 10° N
Cosmos 2181 Rocket 4.5 21:40:32 10° NNW 21:45:48 51° WNW 21:45:48 51° WNW
BREEZE-M DEB (TANK) 3.8 21:51:19 45° NNW 21:51:20 45° NNW 22:00:22 10° NE
Cosmos 2154 Rocket 3.9 21:53:07 77° ESE 21:53:20 78° E 21:59:34 10° N
SL-16 R/B 2.4 21:54:03 89° SSE 21:54:05 90° SE 22:00:18 10° NNW
Cosmos 1375 Rocket 4.4 21:49:27 10° NNW 21:56:04 89° ENE 21:56:25 81° SSE
Meteor 2-17 Rocket 4.3 21:58:18 78° WNW 21:58:18 78° WNW 22:04:16 10° N
SL-19 R/B 4.5 21:57:51 73° SSE 21:58:31 86° ENE 22:05:12 10° NNW
CBERS-1 4.2 21:55:40 10° NNE 22:00:19 68° ENE 22:00:19 68° ENE
Cosmos 2263 Rocket 2.5 22:03:25 10° NNW 22:08:57 62° ENE 22:10:21 47° SE
Cosmos 1076 Rocket 4.1 22:14:26 55° NNE 22:14:26 55° NNE 22:17:54 10° N
IRIDIUM 106 4.3 22:15:58 77° ESE 22:16:07 78° E 22:21:21 10° N
Cosmos 2151 4.3 22:18:29 32° ESE 22:18:53 32° E 22:22:44 10° NNE
NPP 4.4 22:14:21 10° N 22:18:55 38° WNW 22:18:55 38° WNW
ADEOS II 1.9 22:14:09 10° NNE 22:19:25 85° ESE 22:19:39 81° SSE
Cosmos 2322 Rocket 2.4 22:20:42 55° WNW 22:20:43 55° WNW 22:26:14 10° N
STARLINK-1016 4.4 22:22:55 51° ENE 22:22:55 51° ENE 22:26:05 10° NE
In-Cosmos 22 Rocket 4.1 22:22:33 72° WSW 22:22:45 73° W 22:28:18 10° N
IDEFIX/ARIANE 42P 4.3 22:20:42 10° NE 22:25:03 26° E 22:27:43 18° SE
Cosmos 1892 4.0 22:27:01 34° NNW 22:27:01 34° NNW 22:29:20 10° N
CZ-4B R/B 4.3 22:20:59 10° N 22:25:34 39° WNW 22:25:34 39° WNW
STARLINK-1008 4.1 22:27:42 58° NE 22:27:42 58° NE 22:31:04 10° NE
Nadezhda 3 Rocket 3.9 22:21:39 10° N 22:28:00 84° W 22:29:41 52° S
IRS-1C 4.0 22:24:31 10° NNE 22:29:52 87° ESE 22:30:37 67° S
IRS-1D 3.7 22:24:47 10° N 22:29:53 55° WNW 22:29:53 55° WNW
STARLINK-24 4.3 22:30:57 47° N 22:30:57 47° N 22:34:11 10° NNE
USA 229 DEB 4.2 22:23:26 10° NNW 22:30:51 67° ENE 22:38:29 10° SE
USA 229 4.2 22:23:33 10° NNW 22:30:57 66° ENE 22:38:36 10° SE
IRS-P3 Rocket 4.5 22:26:27 10° N 22:31:42 68° WNW 22:32:02 66° W
STARLINK-1014 3.9 22:32:31 63° NNE 22:32:31 63° NNE 22:36:01 10° NE
NOSS 3-1 (C) 4.3 22:24:34 10° NNW 22:32:38 77° ENE 22:41:33 10° SSE
Lacrosse 5 rocket 3.3 22:35:59 18° SE 22:36:12 18° ESE 22:39:01 10° ENE
STARLINK-1025 3.8 22:37:16 67° N 22:37:16 67° N 22:41:01 10° NE
ARIANE 5 R/B 2.4 22:33:39 10° NNE 22:38:39 76° ESE 22:39:38 57° S
STARLINK-1017 3.8 22:42:03 64° NNW 22:42:03 64° NNW 22:45:59 10° NE
SL-19 R/B 4.3 22:38:09 10° NNE 22:41:50 71° NE 22:41:50 71° NE
Meteor 2-2 Rocket 4.3 22:36:26 10° NNW 22:42:24 65° W 22:43:43 51° SSW
Cosmos 2237 4.2 22:42:15 55° SW 22:43:20 69° WNW 22:49:03 10° NNE
STARLINK-1023 3.8 22:46:50 58° NW 22:46:50 58° NW 22:50:55 10° NE
Resurs 1-4 Rocket 3.9 22:44:15 10° NNW 22:47:33 17° WNW 22:47:38 17° WNW
Cosmos 2221 3.7 22:47:34 10° NNW 22:50:22 29° WNW 22:50:22 29° WNW
STARLINK-1007 4.0 22:51:38 51° WNW 22:51:50 51° NW 22:55:53 10° NNE
SL-24 DEB 4.3 22:47:48 10° N 22:52:24 73° E 22:53:54 42° SSE
GEOS 3 Rocket 3.5 22:49:18 10° SSE 22:54:25 86° WSW 22:59:41 10° NNW
SL-16 R/B 3.6 22:54:48 21° WNW 22:55:45 22° WNW 23:00:03 10° NNW
Cosmos 2341 Rocket 4.1 22:53:59 41° SW 22:55:57 58° W 23:02:12 10° N
STARLINK-1048 4.1 22:56:24 44° WNW 22:56:49 46° NW 23:00:48 10° NNE
COSMOS 2428 3.7 22:54:09 20° SSE 22:57:36 41° ESE 23:02:52 10° NE
STARLINK-1049 4.3 23:01:12 38° WNW 23:01:49 41° NW 23:05:45 10° NNE
Cosmos 1825 2.3 23:03:34 55° WNW 23:03:34 55° WNW 23:07:11 10° N
Cosmos 1844 Rocket 4.3 22:58:54 10° N 23:03:56 34° ENE 23:08:57 10° SE
Cosmos 1408 3.8 23:05:51 28° WNW 23:05:51 28° WNW 23:08:28 10° NNW
Cosmos 2344 4.2 22:59:51 18° S 23:05:32 48° ESE 23:12:38 10° NE
Cosmos 1125 Rocket 4.2 23:01:09 10° NW 23:05:33 33° W 23:05:33 33° W
Spot 4 Rocket 3.9 23:02:43 10° N 23:07:51 77° WNW 23:10:02 35° SSW
COBE Rocket 3.8 23:05:57 25° S 23:08:57 81° WSW 23:14:05 10° NNW
Cosmos 1959 Rocket 4.4 23:06:28 29° SSW 23:09:47 77° W 23:15:55 10° N
Cosmos 1538 Rocket 4.0 23:13:30 34° SSW 23:15:49 69° WNW 23:21:12 10° N
STARLINK-1034 4.4 23:17:32 29° S 23:19:05 44° SE 23:23:02 10° NE
Cosmos 2360 Rocket 3.1 23:17:21 26° W 23:19:15 33° WNW 23:24:18 10° N
SL-8 Rocket 4.3 23:17:03 29° SW 23:19:58 49° W 23:26:02 10° N
Landsat 5 4.3 23:16:57 10° SSE 23:21:22 57° ENE 23:25:46 10° N
Cosmos 2218 Rocket 4.1 23:18:21 26° SSW 23:21:55 59° W 23:28:14 10° N
STARLINK-1068 4.2 23:22:17 29° S 23:24:01 50° SE 23:28:01 10° NE
Cosmos 1933 4.4 23:22:18 10° N 23:26:10 44° E 23:30:00 10° SSE
Cosmos 1340 4.0 23:22:55 10° SSE 23:26:19 36° E 23:29:47 10° NNE
Cosmos 2333 Rocket 2.1 23:25:12 24° SSW 23:28:44 83° WNW 23:34:25 10° NNE
STARLINK-1027 4.0 23:27:06 28° SSW 23:29:00 57° SE 23:33:04 10° NE
Cosmos 1408 Rocket 3.4 23:29:15 21° S 23:32:03 83° W 23:36:22 10° N
SL-08 R/B 3.9 23:31:29 27° SW 23:33:01 34° W 23:37:12 10° NNW
STARLINK-1060 3.8 23:31:53 27° SSW 23:33:58 65° SE 23:38:04 10° NE
Cosmos 2322 4.1 23:32:15 24° SW 23:35:21 47° WNW 23:40:53 10° N
FUSE 4.3 23:33:20 25° WSW 23:36:09 47° S 23:41:18 10° ESE
Cosmos 2219 Rocket 2.1 23:33:41 21° SSW 23:37:30 74° WNW 23:43:05 10° NNE
CZ-4C R/B 3.0 23:34:51 13° S 23:38:02 73° W 23:41:40 10° NNW
STARLINK-1030 3.7 23:36:39 25° SSW 23:38:55 74° SE 23:43:03 10° NE
Delta 2 Rocket 4.0 23:36:50 21° WSW 23:40:54 57° S 23:46:48 10° E
STARLINK-1020 3.6 23:41:25 23° SW 23:43:52 83° SE 23:48:02 10° NE
Meteor 1-28 Rocket 4.2 23:46:19 22° SW 23:47:23 26° W 23:50:34 10° NW
H-2A R/B 2.3 23:43:57 10° S 23:48:10 49° W 23:52:29 10° NNW
STARLINK-1052 3.6 23:46:12 21° SW 23:48:50 87° NW 23:53:00 10° NE
ATLAS 5 CENTAUR R/B 1.5 23:48:15 16° SSW 23:51:24 72° ESE 23:55:38 10° NNE
Cosmos 2263 Rocket 3.9 23:50:05 10° WNW 23:51:56 12° W 23:51:56 12° W
SL-4 R/B 2.2 23:48:47 10° NW 23:53:29 84° SW 23:57:50 10° SE
deb Chang Zheng 4 3.5 23:50:24 10° N 23:54:40 76° WNW 23:58:53 10° SSW
Cosmos 1151 Rocket 3.1 23:51:09 10° NNW 23:55:28 60° W 23:59:46 10° S
